• In France
  • List of Countries
  • For 7 days
  • Water Temperature
  • Satellite Maps
  • Weather Map
  • Weather Widgets
  • user-avatar
    Login

    Hourly Weather Ganja

    Today, 19 October, Friday

    Time Temperature Precipitation Wind Pressure Humidity
    00:00 +16°C° 0 mm 1 mps 729 mmHg 81%
    01:00 +16°C° 0 mm 1 mps 729 mmHg 84%
    02:00 +15°C° 0 mm 1 mps 729 mmHg 86%
    03:00 +15°C° 0 mm 1 mps 729 mmHg 88%
    04:00 +15°C° 0 mm 1 mps 729 mmHg 88%
    05:00 +14°C° 0 mm 0 mps 729 mmHg 88%
    06:00 +13°C° 0 mm 0 mps 729 mmHg 88%
    07:00 +16°C° 0 mm 1 mps 729 mmHg 83%
    08:00 +18°C° 0 mm 1 mps 729 mmHg 77%
    09:00 +19°C° 0 mm 1 mps 729 mmHg 72%
    10:00 +20°C° 0 mm 1 mps 729 mmHg 68%
    11:00 +21°C° 0 mm 1 mps 729 mmHg 63%
    12:00 +21°C° 0 mm 2 mps 728 mmHg 59%
    13:00 +21°C° 0 mm 2 mps 728 mmHg 58%
    14:00 +23°C° 0 mm 2 mps 728 mmHg 57%
    15:00 +23°C° 0 mm 2 mps 728 mmHg 56%
    16:00 +21°C° 0 mm 2 mps 728 mmHg 61%
    17:00 +20°C° 0 mm 2 mps 728 mmHg 66%
    18:00 +19°C° 0 mm 2 mps 728 mmHg 71%
    19:00 +18°C° 0 mm 2 mps 728 mmHg 73%
    20:00 +19°C° 0 mm 1 mps 728 mmHg 75%
    21:00 +18°C° 0 mm 1 mps 728 mmHg 77%
    22:00 +18°C° 0 mm 1 mps 728 mmHg 78%
    23:00 +16°C° 0 mm 1 mps 728 mmHg 80%

    Tomorrow, 20 October, Saturday

    Time Temperature Precipitation Wind Pressure Humidity
    00:00 +16°C° 0 mm 1 mps 728 mmHg 82%
    01:00 +16°C° 0 mm 1 mps 728 mmHg 82%
    02:00 +15°C° 0 mm 1 mps 728 mmHg 83%
    03:00 +14°C° 0 mm 0 mps 728 mmHg 83%
    04:00 +15°C° 0 mm 1 mps 727 mmHg 83%
    05:00 +15°C° 0 mm 1 mps 727 mmHg 82%
    06:00 +15°C° 0 mm 1 mps 727 mmHg 82%
    07:00 +16°C° 0 mm 1 mps 727 mmHg 76%
    08:00 +19°C° 0 mm 1 mps 727 mmHg 70%
    09:00 +20°C° 0 mm 1 mps 727 mmHg 64%
    10:00 +21°C° 0 mm 1 mps 727 mmHg 60%
    11:00 +22°C° 0 mm 1 mps 727 mmHg 55%
    12:00 +23°C° 0 mm 1 mps 726 mmHg 51%
    13:00 +24°C° 0 mm 1 mps 726 mmHg 50%
    14:00 +24°C° 0 mm 1 mps 725 mmHg 49%
    15:00 +24°C° 0 mm 1 mps 725 mmHg 47%
    16:00 +23°C° 0 mm 1 mps 725 mmHg 52%
    17:00 +22°C° 0 mm 1 mps 725 mmHg 57%
    18:00 +21°C° 0 mm 1 mps 725 mmHg 62%
    19:00 +20°C° 0 mm 1 mps 725 mmHg 63%
    20:00 +20°C° 0 mm 1 mps 726 mmHg 63%
    21:00 +19°C° 0 mm 1 mps 726 mmHg 64%
    22:00 +19°C° 0 mm 1 mps 726 mmHg 65%
    23:00 +19°C° 0 mm 1 mps 726 mmHg 66%

    Day after tomorrow, 21 October, Sunday

    Time Temperature Precipitation Wind Pressure Humidity
    00:00 +18°C° 0 mm 1 mps 725 mmHg 68%
    01:00 +18°C° 0 mm 1 mps 725 mmHg 68%
    02:00 +18°C° 0 mm 1 mps 725 mmHg 68%
    03:00 +16°C° 0 mm 1 mps 725 mmHg 68%
    04:00 +16°C° 0 mm 1 mps 725 mmHg 67%
    05:00 +16°C° 0 mm 1 mps 725 mmHg 66%
    06:00 +16°C° 0 mm 1 mps 725 mmHg 66%
    07:00 +18°C° 0 mm 1 mps 725 mmHg 60%
    08:00 +20°C° 0 mm 1 mps 725 mmHg 55%
    09:00 +22°C° 0 mm 1 mps 725 mmHg 49%
    10:00 +23°C° 0 mm 1 mps 725 mmHg 45%
    11:00 +24°C° 0 mm 1 mps 725 mmHg 41%
    12:00 +24°C° 0 mm 2 mps 724 mmHg 37%
    13:00 +25°C° 0 mm 1 mps 724 mmHg 37%
    14:00 +25°C° 0 mm 1 mps 724 mmHg 36%
    15:00 +25°C° 0 mm 1 mps 723 mmHg 35%
    16:00 +24°C° 0 mm 1 mps 724 mmHg 39%
    17:00 +23°C° 0 mm 1 mps 724 mmHg 43%
    18:00 +21°C° 0 mm 1 mps 724 mmHg 47%
    19:00 +21°C° 0 mm 1 mps 724 mmHg 48%
    20:00 +21°C° 0 mm 1 mps 724 mmHg 50%
    21:00 +20°C° 0 mm 1 mps 724 mmHg 51%
    22:00 +20°C° 0 mm 1 mps 724 mmHg 52%
    23:00 +17°C° 0 mm 0 mps 724 mmHg 54%

    22 October, Monday

    Time Temperature Precipitation Wind Pressure Humidity
    00:00 +17°C° 0 mm 0 mps 724 mmHg 55%
    01:00 +17°C° 0 mm 0 mps 724 mmHg 54%
    02:00 +19°C° 0 mm 1 mps 724 mmHg 54%
    03:00 +19°C° 0 mm 1 mps 724 mmHg 54%
    04:00 +19°C° 0 mm 1 mps 724 mmHg 53%
    05:00 +18°C° 0 mm 1 mps 724 mmHg 53%
    06:00 +18°C° 0 mm 1 mps 724 mmHg 52%
    07:00 +20°C° 0 mm 1 mps 724 mmHg 48%
    08:00 +20°C° 0 mm 2 mps 724 mmHg 44%
    09:00 +21°C° 0 mm 2 mps 724 mmHg 40%
    10:00 +23°C° 0 mm 2 mps 724 mmHg 37%
    11:00 +24°C° 0 mm 2 mps 724 mmHg 35%
    12:00 +25°C° 0 mm 2 mps 724 mmHg 32%
    13:00 +25°C° 0 mm 2 mps 723 mmHg 32%
    14:00 +26°C° 0 mm 2 mps 723 mmHg 31%
    15:00 +26°C° 0 mm 2 mps 723 mmHg 31%
    16:00 +24°C° 0 mm 2 mps 723 mmHg 34%
    17:00 +23°C° 0 mm 2 mps 723 mmHg 38%
    18:00 +22°C° 0 mm 1 mps 724 mmHg 41%
    19:00 +20°C° 0 mm 2 mps 724 mmHg 42%
    20:00 +20°C° 0 mm 2 mps 724 mmHg 43%
    21:00 +20°C° 0 mm 2 mps 725 mmHg 44%
    22:00 +19°C° 0 mm 2 mps 725 mmHg 45%
    23:00 +19°C° 0 mm 2 mps 725 mmHg 46%

    23 October, Tuesday

    Time Temperature Precipitation Wind Pressure Humidity
    00:00 +18°C° 0 mm 2 mps 725 mmHg 47%
    01:00 +18°C° 0 mm 2 mps 725 mmHg 48%
    02:00 +18°C° 0 mm 3 mps 725 mmHg 49%
    03:00 +18°C° 0 mm 3 mps 725 mmHg 50%
    04:00 +17°C° 0 mm 3 mps 725 mmHg 51%
    05:00 +17°C° 0 mm 3 mps 725 mmHg 51%
    06:00 +17°C° 0 mm 3 mps 725 mmHg 52%
    07:00 +19°C° 0 mm 2 mps 726 mmHg 47%
    08:00 +20°C° 0 mm 2 mps 726 mmHg 42%
    09:00 +23°C° 0 mm 2 mps 726 mmHg 38%
    10:00 +24°C° 0 mm 2 mps 725 mmHg 36%
    11:00 +25°C° 0 mm 2 mps 725 mmHg 34%
    12:00 +26°C° 0 mm 2 mps 725 mmHg 31%
    13:00 +26°C° 0 mm 2 mps 725 mmHg 31%
    14:00 +26°C° 0 mm 2 mps 724 mmHg 31%
    15:00 +26°C° 0 mm 2 mps 724 mmHg 31%
    16:00 +25°C° 0 mm 1 mps 724 mmHg 34%
    17:00 +24°C° 0 mm 1 mps 725 mmHg 37%
    18:00 +22°C° 0 mm 1 mps 725 mmHg 41%
    19:00 +22°C° 0 mm 1 mps 725 mmHg 41%
    20:00 +21°C° 0 mm 1 mps 725 mmHg 42%
    21:00 +21°C° 0 mm 1 mps 725 mmHg 42%
    22:00 +21°C° 0 mm 1 mps 725 mmHg 42%
    23:00 +19°C° 0 mm 2 mps 725 mmHg 43%

    24 October, Wednesday

    Time Temperature Precipitation Wind Pressure Humidity
    00:00 +19°C° 0 mm 2 mps 725 mmHg 44%
    01:00 +19°C° 0 mm 2 mps 725 mmHg 45%
    02:00 +18°C° 0 mm 2 mps 724 mmHg 46%
    03:00 +18°C° 0 mm 2 mps 724 mmHg 47%
    04:00 +18°C° 0 mm 2 mps 724 mmHg 48%
    05:00 +18°C° 0 mm 2 mps 724 mmHg 49%
    06:00 +17°C° 0 mm 2 mps 724 mmHg 50%
    07:00 +19°C° 0 mm 2 mps 724 mmHg 46%
    08:00 +21°C° 0 mm 2 mps 724 mmHg 42%
    09:00 +23°C° 0 mm 2 mps 724 mmHg 38%
    10:00 +24°C° 0 mm 2 mps 723 mmHg 36%
    11:00 +25°C° 0 mm 2 mps 723 mmHg 33%
    12:00 +27°C° 0 mm 3 mps 722 mmHg 31%
    13:00 +27°C° 0 mm 2 mps 722 mmHg 31%
    14:00 +27°C° 0 mm 2 mps 721 mmHg 31%
    15:00 +27°C° 0 mm 2 mps 721 mmHg 31%
    16:00 +26°C° 0 mm 2 mps 721 mmHg 34%
    17:00 +24°C° 0 mm 1 mps 721 mmHg 37%
    18:00 +23°C° 0 mm 1 mps 721 mmHg 41%
    19:00 +22°C° 0 mm 1 mps 720 mmHg 41%
    20:00 +22°C° 0 mm 1 mps 720 mmHg 42%
    21:00 +21°C° 0 mm 1 mps 720 mmHg 42%
    22:00 +21°C° 0 mm 1 mps 720 mmHg 43%
    23:00 +21°C° 0 mm 1 mps 720 mmHg 44%
    Show more